Regional Weather Roundup
Issued by NWS Sioux Falls, SD

Home | Current Version | Previous Version | Text Only | Print | Product List | Glossary Off
Versions: 1 2 3 4 5 6 7 8 9 10 11 12 13 14 15 16 17 18 19 20 21 22 23 24 25 26 27 28 29 30 31 32 33 34 35 36 37 38 39 40 41 42 43 44 45 46 47 48 49 50

000
ASUS43 KFSD 270310
RWRFSD

WEATHER ROUNDUP FOR SE SOUTH DAKOTA/SW MINNESOTA/NW IOWA
NATIONAL WEATHER SERVICE SIOUX FALLS SD
1000 PM CDT FRI MAY 26 2017

NOTE: "FAIR" INDICATES FEW OR NO CLOUDS BELOW 12,000 FEET WITH NO
SIGNIFICANT WEATHER AND OR OBSTRUCTIONS TO VISIBILITY.


SDZ038>040-050-052>070-270400-
SOUTHEAST SOUTH DAKOTA

CITY           SKY/WX    TMP DP  RH WIND       PRES   REMARKS
BROOKINGS      CLOUDY    57  46  66 NW6       29.89R
CHAMBERLAIN    CLOUDY    63  45  51 CALM      29.88F
HURON          CLOUDY    59  47  64 SW5       29.87R
MADISON        FAIR      57  45  62 NW8       29.90R
MITCHELL       CLOUDY    61  44  53 W6        29.89R
SIOUX FALLS    PTCLDY    61  45  55 W5        29.89R
WINNER         FAIR      63  45  51 N6        29.90S
YANKTON        CLEAR     63  46  54 W3        29.89R
$$

MNZ071-072-080-081-089-090-097-098-270400-
SOUTHWEST MINNESOTA

CITY           SKY/WX    TMP DP  RH WIND       PRES   REMARKS
FAIRMONT       CLEAR     64  46  52 NW8       29.85R
JACKSON        CLEAR     61  45  55 CALM      29.87R
LUVERNE        CLOUDY    57  39  51 W7        29.88R
MARSHALL       CLOUDY    61  47  59 W8        29.86R
MONTEVIDEO     CLEAR     61  45  55 N3        29.85R
PIPESTONE      CLOUDY    59  45  58 CALM      29.88R
REDWOOD FALLS  CLEAR     64  44  48 W6        29.82R
TRACY          CLEAR     64  46  51 W5        29.86R
WINDOM         CLEAR     61  46  59 W5        29.86R
WORTHINGTON    CLEAR     60  44  55 W6        29.88R
$$

IAZ001>003-012>014-020>022-031-032-NEZ013-014-SDZ071-270400-
NORTHWEST IOWA

CITY           SKY/WX    TMP DP  RH WIND       PRES   REMARKS
CHEROKEE       CLEAR     63  43  48 NW3       29.87R
DENISON        CLEAR     64  46  52 NW7       29.88R
ESTHERVILLE    CLEAR     59  50  72 W8        29.85R
LE MARS        CLOUDY    61  50  67 CALM      29.90R
ORANGE CITY    CLOUDY    64  45  48 NW5       29.89R
SHELDON        CLEAR     63  41  45 W5        29.87R
SIOUX CITY     CLEAR     62  46  55 NW6       29.88R
SPENCER        CLEAR     57  46  66 W9        29.87R
STORM LAKE     CLEAR     66  45  45 NW9       29.87R
$$

ABBREVIATIONS USED IN REMARKS
   TC - TEMPERATURE IN CELSIUS
  WCI - WIND CHILL INDEX
   HX - HEAT INDEX
  VSB - VISIBILITY





USA.gov is the U.S. government's official web portal to all federal, state and local government web resources and services.